Starlink 11322

operational
NORAD ID: 61542 Int'l Des: 2024-184 Owner: SPXS Country: US Constellation: starlink
LEOCIRCULAR

Über Starlink 11322

Beschreibung wird geladen...

Live-Position

3D-Globus wird geladen...

Nächste Überflüge

Höhenverlauf

Altitude vs Time

uPlot chart will show altitude changes over time

Zweizeiliger Elementsatz

1 61542U 24184L 25259.61650210 -.00002702 00000-0 -17466-4 0 9992
2 61542 53.1596 14.6391 0001131 130.6143 229.4974 15.69687476 54136
Epoch: 16. Sept. 2025 • Age: 35 hours

Aktueller Status

Höhe 370.2 km
Geschwindigkeit 7.69 km/s
Subsatellitenpunkt -31.33°S, 43.31°W
Startdatum 15. Okt. 2024
Alter 0.9 years
Typ internet

Technische Details

Klassifizierung Payload
Masse 960.00 kg
Trockenmasse 910.00 kg
Gesamtmasse 960.00 kg
Länge 0.30 m
Durchmesser 4.10 m
Spannweite 29.00 m
Form Box + pan
Hersteller SPXS
Bus-Typ Starlink V2MD
Phasenstatus In Orbit
Besitzer/Staat SPXS/US

Große Konstellationen

Loading constellations...